Погода Терней

Погода Терней : погода сейчас, прогноз погоды и архив. Всё, что Вы хотите узнать о погоде Терней!

Хотите узнать прогноз погоды Терней? Тогда Вам сюда: Погода Терней

Поиск расширенной информации на нашем сайте:

Другие новости

Новости СМИ2

Главная страница сайта

Новости сайта

02.10.2013

Напоминаем, что на нашем новом сайте вы можете получить высокодетализированные прогнозы погоды по пунктам России, СНГ и мира (включающие важные для авиации метеовеличины, такие как направление и скорость ветра, видимость, явления погоды, количество и форма облачности, нижняя и верхняя граница облачности), а также ознакомиться с разнообразными материалами по авиационной метеорологии и подборкой полезных ссылок на эту тему.

Сайт Метеоцентр.Азия посвящён разработке технологий оптимизации авиаметеорологического обслуживания, включая проектирование и перспективное создание нескольких автоматизированных авиаметеорологических систем:
- система выпуска высокодетальных прогностических карт явлений погоды для нижнего воздушного пространства по России и ближнему зарубежью;
- система верификации прогнозов TAF (выпускаемых синоптиками официальных АМСГ РФ и ближнего зарубежья) и AUTOTAF (выпускаемых сайтом Метеоцентр.Азия) - выявление ошибок, онлайн-сопоставление с фактической погодой METAR, автоматическое внесение коррективов в прогнозы при резком отклонении фактической погоды от прогноза, подсчёт оправдываемости прогнозов по элементам и в целом;
- система обработки, анализа и отображения авиаметеорологической информации для применения провайдерами метеорологической информации.


Погода Терней - сегодня

Время (UTC), дата Ветер
(°,м/с) 
Видим.   Явления Облачность Т
(°С)
Тd
(°С)
f(%) Тe
(°С)
Pmin
(гПа)
dP
(гПа)
Po
(мм)
O2
(г/м3)
Тmin Tmax R s Состояние
почвы
12 25.05.17 250 (З) 20000 м    8/8 600 м 
[Sc]
+7.6 +4.3 80 +8  1014  1.2  755  295           
15 25.05.17 170 (Ю) 20000 м    ясно 
+4.6 +3.3 91 +5  1014.2  0.2  755  299           
18 25.05.17 240 (ЮЗ) 20000 м    ясно 
+3.5 +3.1 97 +4  1013.9  -0.4  755  300           
21 25.05.17 320 (СЗ) 20000 м    ясно 
+3.8 +3.4 97 +3  1013.3  -0.5  754  299  +2.3        сухая 
00 26.05.17 130 (ЮВ) 20000 м    3/0 верхняя 
[Ci fib]
+11.3 +5.9 69 +11  1012.4  -0.7  754  291           
03 26.05.17 140 (ЮВ) 20000 м    8/8 600 м 
[Sc]
+10.5 +5.6 72 +10  1012.6  0.1  754  292           
06 26.05.17 140 (ЮВ) 20000 м    8/3 600 м верхняя 
[Sc|Ci sp]
+11.5 +5.9 68 +12  1011.6  -0.9  753  290           
09 26.05.17 140 (ЮВ) 20000 м    6/0 верхняя 
[Cc]
+10.8 +4.8 66 +11  1011  -0.7  753  291    +13       
12 26.05.17 320 (СЗ) 2000 м  дымка  6/3 100 м верхняя 
[St|Cc]
+5.7 +5 95 +5  1011.7  0.6  753  296           
15 26.05.17 300 (СЗ) 20000 м    ясно 
+5.4 +3.5 88 +6  1011.2  -0.5  753  297           
18 26.05.17 270 (З) 20000 м    ясно 
+3.7 +3.1 96 +3  1011.1  0.1  753  299           
00 27.05.17 340 (С) 20000 м    8/0 средняя 
[Ac trans]
+14.7 +4.8 51 +16  1010.6  -0.2  752  287           
03 27.05.17 110 (В) 20000 м    10/6 600 м средняя 
[Sc|As trans]
+13.6 +5.9 60 +14  1011.1  0.5  753  288           
06 27.05.17 140 (ЮВ) 20000 м    8/5 600 м средняя, верхняя 
[Sc|Ac trans|Ci fib]
+13.6 +6 60 +14  1009.7  -1.4  752  288           
12 27.05.17 270 (З) 20000 м    8/0 средняя, верхняя 
[Ac trans|Ci sp]
+8.4 +5 79 +9  1009.6  0.1  752  293           
15 27.05.17 080 (В) 20000 м    ясно 
+5.5 +4.4 93 +6  1009.1  -0.6  751  296           
18 27.05.17 тихо ()   20000 м    3/0 средняя 
[Ac As]
+4.2 +3.6 96 +4  1008.4  -0.7  751  297           
00 28.05.17 120 (ЮВ) 20000 м    8/3 600 м средняя, верхняя 
[Sc|Ac trans|Cc]
+12.2 +6.3 67 +12  1007.8  -0.5  750  288           
03 28.05.17 110 (В) 20000 м    8/0 средняя, верхняя 
[Ac trans|Ci sp]
+12.7 +6.9 68 +13  1006.3  -1.5  749  287           
06 28.05.17 100 (В) 20000 м    4/0 верхняя 
[Ci sp]
+11.8 +6.6 70 +11  1004.2  -2.1  748  288           
12 28.05.17 270 (З) 20000 м    ясно 
+6.5 +5.4 93 +6  1003.7  0.3  747  293           
15 28.05.17 270 (З) 20000 м    ясно 
+7.5 +6.2 91 +7  1002.6  -1.1  746  292           
18 28.05.17 310 (СЗ) 20000 м    ясно 
+8.2 +6.6 90 +8  1002.2  -0.3  746  291           
00 29.05.17 310 (СЗ) 6-11{14}  20000 м    6/0 верхняя 
[Cs]
+23.3 +4.7 30 +23  1003.6  0.7  747  277           
06 29.05.17 310 (СЗ) 5{13}  20000 м    8/0 верхняя 
[Cs]
+26.3 -3.4 14 +26  1001.8  -1.5  746  275           
Время (UTC), дата Ветер
(°,м/с) 
Видим.   Явления Облачность Т
(°С)
Тd
(°С)
f(%) Тe
(°С)
Pmin
(гПа)
dP
(гПа)
Po
(мм)
O2
(г/м3)
Тmin Tmax R s Состояние
почвы

Для получения пояснительной информации подведите курсор к названию столбца.

ПОГОДА Терней - архив

Всё, что Вы хотите узнать о погоде Терней - удобно и подробно!

Выберите нужную дату (начиная с 1 января 2015* года) и нажмите кнопку "Найти".
Будут отображены архивные сводки погоды по пункту Терней, начиная с указанной даты.


Отображать данные в формате CSV (для использования в таблицах Excel)


Внимание! Наш архив погоды предназначен исключительно для личного некоммерческого использования в познавательных целях. Если Вам необходимы официальные справки о состоянии погоды (для производственных, юридических, коммерческих и т.п. целей), обращайтесь в органы Росгидромета.

*Примечание: данная дата относится к архиву по метеостанциям СССР (Россия, СНГ, Балтия).
Архив по метеостанциям Зарубежной Европы и Азии (кроме Китая) хранится 10 дней, по другим регионам земного шара (Китай, Африка, Америка, Австралия, Океания) - 1 день.

Терней - район местоположения метеостанции


Название, широта, долгота, высота метеостанции:
Терней 45°ш. 136.6°д. 68 м над ур. моря [Российская Федерация]

Дополнительная информация

В oтличие oт бoльшинства пoгoдных сайтoв мы публикуем пoдрoбную метеoинфoрмацию в детальнoм прoфессиoнальнoм фoрмате.

Характеристики температуры и влажнoсти вoздуха измеряются на высoте 2 м в тени вдали oт зданий и деревьев.
Скoрoсть ветра измеряется на высoте 10 м (на урoвне рoста челoвека скoрoсть ветра ниже в 1.5-2 раза). Если метеoстанция нахoдится в гoрoде или в лесу, тo скoрoсть ветра занижена на 2-4 м/с пo сравнению с oткрытым местoм. Скoрoсть ветра над акватoриями крупных рек и oзёр, а также на вершинах хoлмoв на 2-5 м/с выше, чем в oбычных услoвиях.
Атмoсфернoе давление в разных тoчках местнoсти мoжет значительнo oтличаться oт давления на метеoстанции, в зависимoсти oт услoвий рельефа (при пoдъёме на 10 м давление пoнижается примернo на 1 мм рт.ст.).